COMSATBW-2

导读 | 星芒AI

COMSATBW-2 是一颗由英国卫星通信公司 COMSAT BW 拥有的宽带通信卫星,主要用于提供高速互联网和通信服务。该卫星采用先进技术,支持高容量数据传输,覆盖范围广泛,旨在满足偏远地区和移动用户的连接需求。它在提升全球通信基础设施、促进数字经济发展方面发挥着重要作用。

基本信息
目录编号:
36582
目录名称:
COMSATBW-2
国际标识:
2010-021B
轨道中心:
EARTH
卫星名称:
COMSATBW-2
卫星全名:
--
卫星状态:
在轨 (已飞行5646 天)
发射日期:
2010-05-21 UTC
国别 :
德国 (DE)
星等 :
--
轨道信息
数据来源 国际轨道数据 AOE轨道数据
星历时间 2025-11-04T14:36:15+0800
14小时前
查看轨道信息
2025-11-04T08:00:00+0800
21小时前
查看轨道信息
半长轴 42163.271km 42164.027km
偏心率 0.0003698 0.0003543
轨道倾角 0.055° 0.094°
近地点辐角 166.651° 159.368°
升交点赤经 80.289° 86.439°
平近点角 269.155° 170.951°
近地点 35769.544km 35770.953km
远地点 35800.728km 35800.831km
周期 1436.022分钟 1436.061分钟
每日圈数 1.00277 1.002743
详细信息
使用方式:
暂无
2D轨道图
3D轨道图
轨道高度分析图
轨道倾角分析图
轨道综合分析图
查看轨道综合分析图